Location: Landeleau
(48.2273°N, 3.7285°W)
Time: 05:55:10
(UTC+00:00)

Cosmos 1703 - Pass Details

Date: 30 March 2020
Orbit: 523 x 541 km, 82.5° (Epoch: 02 June)

Event Time Altitude Azimuth Distance (km) Brightness Sun altitude
Rises 20:36:22 0° 354° (N) 2,696 7.4 -18.7°
Reaches altitude 10° 20:38:34 10° 0° (N) 1,803 6.3 -19.0°
Maximum altitude 20:42:26 50° 77° (ENE) 691 3.5 -19.5°
Enters shadow 20:42:35 50° 86° (E) 694 3.4 -19.5°
